Year,Month,Day,Hour,Minute,Value (Times are PST for temperature in C)
2010,08,14,00,00,17.30
2010,08,14,00,01,17.30
2010,08,14,00,02,17.40
2010,08,14,00,03,17.40
2010,08,14,00,04,17.40
2010,08,14,00,05,17.40
2010,08,14,00,06,17.40
2010,08,14,00,07,17.40
2010,08,14,00,08,17.30
2010,08,14,00,09,17.30
2010,08,14,00,10,17.40
2010,08,14,00,11,17.40
2010,08,14,00,12,17.40
2010,08,14,00,13,17.40
2010,08,14,00,14,17.40
2010,08,14,00,15,17.30
2010,08,14,00,16,17.30
2010,08,14,00,17,17.30
2010,08,14,00,18,17.30
2010,08,14,00,19,17.30
2010,08,14,00,20,17.20
2010,08,14,00,21,17.20
2010,08,14,00,22,17.20
2010,08,14,00,23,17.20
2010,08,14,00,24,17.20
2010,08,14,00,25,17.20
2010,08,14,00,26,17.20
2010,08,14,00,27,17.20
2010,08,14,00,28,17.20
2010,08,14,00,29,17.20
2010,08,14,00,30,17.20
2010,08,14,00,31,17.20
2010,08,14,00,32,17.10
2010,08,14,00,33,17.10
2010,08,14,00,34,17.10
2010,08,14,00,35,17.10
2010,08,14,00,36,17.10
2010,08,14,00,37,17.20
2010,08,14,00,38,17.20
2010,08,14,00,39,17.10
2010,08,14,00,40,17.10
2010,08,14,00,41,17.10
2010,08,14,00,42,17.10
2010,08,14,00,43,17.20
2010,08,14,00,44,17.10
2010,08,14,00,45,17.10
2010,08,14,00,46,17.10
2010,08,14,00,47,17.10
2010,08,14,00,48,17.10
2010,08,14,00,49,17.10
2010,08,14,00,50,17.10
2010,08,14,00,51,17.10
2010,08,14,00,52,17.10
2010,08,14,00,53,17.10
2010,08,14,00,54,17.00
2010,08,14,00,55,17.00
2010,08,14,00,56,17.00
2010,08,14,00,57,17.00
2010,08,14,00,58,17.00
2010,08,14,00,59,17.00
2010,08,14,01,00,17.00
2010,08,14,01,01,17.00
2010,08,14,01,02,17.00
2010,08,14,01,03,17.00
2010,08,14,01,04,17.00
2010,08,14,01,05,17.00
2010,08,14,01,06,17.00
2010,08,14,01,07,17.00
2010,08,14,01,08,17.00
2010,08,14,01,09,17.00
2010,08,14,01,10,17.00
2010,08,14,01,11,17.00
2010,08,14,01,12,17.00
2010,08,14,01,13,17.00
2010,08,14,01,14,17.00
2010,08,14,01,15,16.90
2010,08,14,01,16,16.90
2010,08,14,01,17,16.90
2010,08,14,01,18,16.90
2010,08,14,01,19,16.90
2010,08,14,01,20,16.90
2010,08,14,01,21,16.90
2010,08,14,01,22,16.90
2010,08,14,01,23,16.90
2010,08,14,01,24,16.80
2010,08,14,01,25,16.80
2010,08,14,01,26,16.80
2010,08,14,01,27,16.80
2010,08,14,01,28,16.80
2010,08,14,01,29,16.80
2010,08,14,01,30,16.80
2010,08,14,01,31,16.80
2010,08,14,01,32,16.80
2010,08,14,01,33,16.80
2010,08,14,01,34,16.70
2010,08,14,01,35,16.70
2010,08,14,01,36,16.70
2010,08,14,01,37,16.70
2010,08,14,01,38,16.70
2010,08,14,01,39,16.70
2010,08,14,01,40,16.70
2010,08,14,01,41,16.70
2010,08,14,01,42,16.70
2010,08,14,01,43,16.70
2010,08,14,01,44,16.60
2010,08,14,01,49,16.60
2010,08,14,01,50,16.60
2010,08,14,01,51,16.60
2010,08,14,01,52,16.60
2010,08,14,01,53,16.60
2010,08,14,01,54,16.60
2010,08,14,01,55,16.60
2010,08,14,01,56,16.60
2010,08,14,01,57,16.60
2010,08,14,01,58,16.50
2010,08,14,01,59,16.60
2010,08,14,02,00,16.50
2010,08,14,02,01,16.50
2010,08,14,02,02,16.50
2010,08,14,02,03,16.50
2010,08,14,02,04,16.50
2010,08,14,02,05,16.40
2010,08,14,02,06,16.40
2010,08,14,02,07,16.40
2010,08,14,02,08,16.40
2010,08,14,02,09,16.40
2010,08,14,02,10,16.40
2010,08,14,02,11,16.30
2010,08,14,02,12,16.30
2010,08,14,02,13,16.30
2010,08,14,02,14,16.30
2010,08,14,02,15,16.30
2010,08,14,02,16,16.30
2010,08,14,02,17,16.30
2010,08,14,02,18,16.30
2010,08,14,02,19,16.30
2010,08,14,02,20,16.30
2010,08,14,02,21,16.30
2010,08,14,02,22,16.30
2010,08,14,02,23,16.30
2010,08,14,02,24,16.30
2010,08,14,02,25,16.30
2010,08,14,02,26,16.30
2010,08,14,02,27,16.30
2010,08,14,02,28,16.20
2010,08,14,02,29,16.20
2010,08,14,02,30,16.20
2010,08,14,02,31,16.20
2010,08,14,02,32,16.20
2010,08,14,02,33,16.20
2010,08,14,02,34,16.20
2010,08,14,02,35,16.10
2010,08,14,02,36,16.10
2010,08,14,02,37,16.10
2010,08,14,02,38,16.10
2010,08,14,02,39,16.10
2010,08,14,02,40,16.10
2010,08,14,02,41,16.10
2010,08,14,02,42,16.10
2010,08,14,02,43,16.10
2010,08,14,02,44,16.10
2010,08,14,02,45,16.10
2010,08,14,02,46,16.10
2010,08,14,02,47,16.10
2010,08,14,02,48,16.10
2010,08,14,02,49,16.10
2010,08,14,02,50,16.10
2010,08,14,02,51,16.10
2010,08,14,02,52,16.00
2010,08,14,02,53,16.00
2010,08,14,02,54,16.00
2010,08,14,02,55,16.00
2010,08,14,02,56,16.00
2010,08,14,02,57,16.00
2010,08,14,02,58,15.90
2010,08,14,02,59,15.90
2010,08,14,03,00,15.90
2010,08,14,03,01,15.90
2010,08,14,03,02,15.90
2010,08,14,03,03,15.90
2010,08,14,03,04,15.90
2010,08,14,03,05,15.90
2010,08,14,03,06,15.90
2010,08,14,03,07,15.90
2010,08,14,03,08,15.80
2010,08,14,03,09,15.80
2010,08,14,03,10,15.80
2010,08,14,03,11,15.80
2010,08,14,03,12,15.80
2010,08,14,03,13,15.80
2010,08,14,03,14,15.80
2010,08,14,03,15,15.80
2010,08,14,03,16,15.80
2010,08,14,03,17,15.80
2010,08,14,03,18,15.80
2010,08,14,03,19,15.80
2010,08,14,03,20,15.80
2010,08,14,03,21,15.80
2010,08,14,03,22,15.70
2010,08,14,03,23,15.70
2010,08,14,03,24,15.70
2010,08,14,03,25,15.70
2010,08,14,03,26,15.70
2010,08,14,03,27,15.70
2010,08,14,03,28,15.70
2010,08,14,03,29,15.70
2010,08,14,03,30,15.70
2010,08,14,03,31,15.70
2010,08,14,03,32,15.70
2010,08,14,03,33,15.70
2010,08,14,03,34,15.70
2010,08,14,03,35,15.70
2010,08,14,03,36,15.70
2010,08,14,03,37,15.70
2010,08,14,03,38,15.70
2010,08,14,03,39,15.70
2010,08,14,03,40,15.70
2010,08,14,03,41,15.70
2010,08,14,03,42,15.70
2010,08,14,03,43,15.70
2010,08,14,03,44,15.70
2010,08,14,03,45,15.70
2010,08,14,03,46,15.70
2010,08,14,03,47,15.70
2010,08,14,03,48,15.70
2010,08,14,03,49,15.70
2010,08,14,03,50,15.70
2010,08,14,03,51,15.70
2010,08,14,03,52,15.70
2010,08,14,03,53,15.60
2010,08,14,03,54,15.60
2010,08,14,03,55,15.60
2010,08,14,03,56,15.60
2010,08,14,03,57,15.60
2010,08,14,03,58,15.60
2010,08,14,03,59,15.60
2010,08,14,04,00,15.60
2010,08,14,04,01,15.60
2010,08,14,04,02,15.60
2010,08,14,04,03,15.60
2010,08,14,04,04,15.60
2010,08,14,04,05,15.60
2010,08,14,04,06,15.60
2010,08,14,04,07,15.60
2010,08,14,04,08,15.60
2010,08,14,04,09,15.60
2010,08,14,04,10,15.60
2010,08,14,04,11,15.60
2010,08,14,04,12,15.60
2010,08,14,04,13,15.60
2010,08,14,04,14,15.60
2010,08,14,04,15,15.60
2010,08,14,04,16,15.60
2010,08,14,04,17,15.60
2010,08,14,04,18,15.60
2010,08,14,04,19,15.60
2010,08,14,04,20,15.60
2010,08,14,04,21,15.60
2010,08,14,04,22,15.60
2010,08,14,04,23,15.60
2010,08,14,04,24,15.60
2010,08,14,04,25,15.60
2010,08,14,04,26,15.60
2010,08,14,04,27,15.60
2010,08,14,04,28,15.50
2010,08,14,04,29,15.50
2010,08,14,04,30,15.50
2010,08,14,04,31,15.50
2010,08,14,04,32,15.50
2010,08,14,04,33,15.50
2010,08,14,04,34,15.50
2010,08,14,04,35,15.50
2010,08,14,04,36,15.50
2010,08,14,04,37,15.50
2010,08,14,04,38,15.40
2010,08,14,04,39,15.40
2010,08,14,04,40,15.40
2010,08,14,04,41,15.40
2010,08,14,04,42,15.40
2010,08,14,04,43,15.40
2010,08,14,04,44,15.40
2010,08,14,04,45,15.40
2010,08,14,04,46,15.40
2010,08,14,04,47,15.40
2010,08,14,04,48,15.40
2010,08,14,04,49,15.40
2010,08,14,04,50,15.40
2010,08,14,04,51,15.40
2010,08,14,04,52,15.40
2010,08,14,04,53,15.40
2010,08,14,04,54,15.40
2010,08,14,04,55,15.40
2010,08,14,04,56,15.40
2010,08,14,04,57,15.40
2010,08,14,04,58,15.40
2010,08,14,04,59,15.40
2010,08,14,05,00,15.40
2010,08,14,05,01,15.30
2010,08,14,05,02,15.30
2010,08,14,05,03,15.30
2010,08,14,05,04,15.30
2010,08,14,05,05,15.30
2010,08,14,05,06,15.30
2010,08,14,05,07,15.30
2010,08,14,05,08,15.30
2010,08,14,05,09,15.30
2010,08,14,05,10,15.30
2010,08,14,05,11,15.30
2010,08,14,05,12,15.30
2010,08,14,05,13,15.30
2010,08,14,05,14,15.30
2010,08,14,05,15,15.30
2010,08,14,05,16,15.30
2010,08,14,05,17,15.30
2010,08,14,05,18,15.20
2010,08,14,05,19,15.20
2010,08,14,05,20,15.20
2010,08,14,05,21,15.20
2010,08,14,05,22,15.20
2010,08,14,05,23,15.20
2010,08,14,05,24,15.20
2010,08,14,05,25,15.20
2010,08,14,05,26,15.20
2010,08,14,05,27,15.20
2010,08,14,05,28,15.20
2010,08,14,05,29,15.20
2010,08,14,05,30,15.20
2010,08,14,05,31,15.20
2010,08,14,05,32,15.20
2010,08,14,05,33,15.20
2010,08,14,05,34,15.10
2010,08,14,05,35,15.10
2010,08,14,05,36,15.10
2010,08,14,05,37,15.10
2010,08,14,05,38,15.10
2010,08,14,05,39,15.10
2010,08,14,05,40,15.00
2010,08,14,05,41,15.00
2010,08,14,05,42,15.00
2010,08,14,05,43,15.00
2010,08,14,05,44,15.00
2010,08,14,05,45,15.00
2010,08,14,05,46,15.00
2010,08,14,05,47,15.00
2010,08,14,05,48,15.00
2010,08,14,05,49,15.00
2010,08,14,05,50,15.00
2010,08,14,05,51,15.00
2010,08,14,05,52,15.00
2010,08,14,05,53,15.00
2010,08,14,05,54,15.00
2010,08,14,05,55,15.00
2010,08,14,05,56,15.00
2010,08,14,05,57,15.00
2010,08,14,05,58,15.00
2010,08,14,05,59,15.00
2010,08,14,06,00,15.00
2010,08,14,06,01,15.00
2010,08,14,06,02,15.00
2010,08,14,06,03,15.00
2010,08,14,06,04,15.00
2010,08,14,06,05,15.00
2010,08,14,06,06,15.00
2010,08,14,06,07,15.00
2010,08,14,06,08,15.00
2010,08,14,06,09,15.00
2010,08,14,06,10,15.00
2010,08,14,06,11,15.00
2010,08,14,06,12,15.00
2010,08,14,06,13,15.00
2010,08,14,06,14,15.00
2010,08,14,06,15,14.90
2010,08,14,06,16,14.90
2010,08,14,06,17,14.90
2010,08,14,06,18,14.90
2010,08,14,06,19,14.90
2010,08,14,06,20,14.90
2010,08,14,06,21,14.90
2010,08,14,06,22,14.90
2010,08,14,06,23,14.90
2010,08,14,06,24,14.90
2010,08,14,06,25,14.90
2010,08,14,06,26,14.90
2010,08,14,06,27,14.90
2010,08,14,06,28,14.90
2010,08,14,06,29,14.90
2010,08,14,06,30,14.90
2010,08,14,06,31,14.90
2010,08,14,06,32,14.90
2010,08,14,06,33,14.80
2010,08,14,06,34,14.80
2010,08,14,06,35,14.80
2010,08,14,06,36,14.80
2010,08,14,06,37,14.80
2010,08,14,06,38,14.80
2010,08,14,06,39,14.90
2010,08,14,06,40,14.90
2010,08,14,06,41,14.90
2010,08,14,06,42,14.90
2010,08,14,06,43,14.90
2010,08,14,06,44,14.90
2010,08,14,06,45,14.90
2010,08,14,06,46,14.90
2010,08,14,06,47,14.90
2010,08,14,06,48,14.90
2010,08,14,06,49,15.00
2010,08,14,06,50,15.00
2010,08,14,06,51,15.00
2010,08,14,06,52,15.00
2010,08,14,06,53,15.00
2010,08,14,06,54,15.00
2010,08,14,06,55,15.00
2010,08,14,06,56,15.00
2010,08,14,06,57,15.00
2010,08,14,06,58,15.00
2010,08,14,06,59,15.00
2010,08,14,07,00,15.00
2010,08,14,07,01,15.00
2010,08,14,07,02,15.00
2010,08,14,07,03,15.00
2010,08,14,07,04,15.00
2010,08,14,07,05,15.00
2010,08,14,07,06,15.00
2010,08,14,07,07,15.00
2010,08,14,07,08,15.00
2010,08,14,07,09,15.00
2010,08,14,07,10,15.00
2010,08,14,07,11,15.00
2010,08,14,07,12,15.00
2010,08,14,07,13,15.00
2010,08,14,07,14,15.00
2010,08,14,07,15,15.00
2010,08,14,07,16,15.00
2010,08,14,07,17,15.00
2010,08,14,07,18,15.00
2010,08,14,07,19,15.10
2010,08,14,07,20,15.10
2010,08,14,07,21,15.10
2010,08,14,07,22,15.10
2010,08,14,07,23,15.20
2010,08,14,07,24,15.20
2010,08,14,07,25,15.20
2010,08,14,07,26,15.20
2010,08,14,07,27,15.20
2010,08,14,07,28,15.20
2010,08,14,07,29,15.20
2010,08,14,07,30,15.30
2010,08,14,07,31,15.30
2010,08,14,07,32,15.30
2010,08,14,07,33,15.30
2010,08,14,07,34,15.30
2010,08,14,07,35,15.30
2010,08,14,07,36,15.40
2010,08,14,07,37,15.40
2010,08,14,07,38,15.40
2010,08,14,07,39,15.40
2010,08,14,07,40,15.40
2010,08,14,07,41,15.40
2010,08,14,07,42,15.50
2010,08,14,07,43,15.50
2010,08,14,07,44,15.50
2010,08,14,07,45,15.50
2010,08,14,07,46,15.60
2010,08,14,07,47,15.60
2010,08,14,07,48,15.60
2010,08,14,07,49,15.60
2010,08,14,07,50,15.60
2010,08,14,07,51,15.60
2010,08,14,07,52,15.60
2010,08,14,07,53,15.70
2010,08,14,07,54,15.70
2010,08,14,07,55,15.70
2010,08,14,07,56,15.70
2010,08,14,07,57,15.70
2010,08,14,07,58,15.70
2010,08,14,07,59,15.70
2010,08,14,08,00,15.80
2010,08,14,08,01,15.80
2010,08,14,08,02,15.80
2010,08,14,08,03,15.90
2010,08,14,08,04,15.90
2010,08,14,08,05,16.00
2010,08,14,08,06,16.10
2010,08,14,08,07,16.10
2010,08,14,08,08,16.10
2010,08,14,08,09,16.10
2010,08,14,08,10,16.10
2010,08,14,08,11,16.20
2010,08,14,08,12,16.20
2010,08,14,08,13,16.20
2010,08,14,08,14,16.20
2010,08,14,08,15,16.20
2010,08,14,08,16,16.20
2010,08,14,08,17,16.20
2010,08,14,08,18,16.20
2010,08,14,08,19,16.30
2010,08,14,08,20,16.30
2010,08,14,08,21,16.30
2010,08,14,08,22,16.30
2010,08,14,08,23,16.30
2010,08,14,08,24,16.30
2010,08,14,08,25,16.40
2010,08,14,08,26,16.40
2010,08,14,08,27,16.40
2010,08,14,08,28,16.40
2010,08,14,08,29,16.40
2010,08,14,08,30,16.50
2010,08,14,08,31,16.50
2010,08,14,08,32,16.60
2010,08,14,08,33,16.60
2010,08,14,08,34,16.60
2010,08,14,08,35,16.70
2010,08,14,08,36,16.80
2010,08,14,08,37,16.80
2010,08,14,08,38,16.80
2010,08,14,08,39,16.90
2010,08,14,08,40,16.90
2010,08,14,08,41,16.90
2010,08,14,08,42,17.00
2010,08,14,08,43,17.10
2010,08,14,08,44,17.10
2010,08,14,08,45,17.20
2010,08,14,08,46,17.20
2010,08,14,08,47,17.30
2010,08,14,08,48,17.30
2010,08,14,08,49,17.40
2010,08,14,08,50,17.50
2010,08,14,08,51,17.50
2010,08,14,08,52,17.60
2010,08,14,08,53,17.60
2010,08,14,08,54,17.70
2010,08,14,08,55,17.70
2010,08,14,08,56,17.80
2010,08,14,08,57,17.90
2010,08,14,08,58,17.90
2010,08,14,08,59,18.00
2010,08,14,09,00,18.10
2010,08,14,09,01,18.20
2010,08,14,09,02,18.20
2010,08,14,09,03,18.30
2010,08,14,09,04,18.40
2010,08,14,09,05,18.50
2010,08,14,09,06,18.60
2010,08,14,09,07,18.60
2010,08,14,09,08,18.70
2010,08,14,09,09,18.80
2010,08,14,09,10,18.90
2010,08,14,09,11,18.90
2010,08,14,09,12,18.90
2010,08,14,09,13,19.00
2010,08,14,09,14,19.10
2010,08,14,09,15,19.20
2010,08,14,09,16,19.30
2010,08,14,09,17,19.30
2010,08,14,09,18,19.40
2010,08,14,09,19,19.50
2010,08,14,09,20,19.60
2010,08,14,09,21,19.70
2010,08,14,09,22,19.80
2010,08,14,09,23,19.90
2010,08,14,09,24,20.00
2010,08,14,09,25,20.20
2010,08,14,09,26,20.30
2010,08,14,09,27,20.40
2010,08,14,09,28,20.50
2010,08,14,09,29,20.60
2010,08,14,09,30,20.70
2010,08,14,09,31,20.70
2010,08,14,09,32,20.80
2010,08,14,09,33,20.90
2010,08,14,09,34,21.00
2010,08,14,09,35,21.10
2010,08,14,09,36,21.20
2010,08,14,09,37,21.30
2010,08,14,09,38,21.40
2010,08,14,09,39,21.50
2010,08,14,09,40,21.60
2010,08,14,09,41,21.60
2010,08,14,09,42,21.70
2010,08,14,09,43,21.80
2010,08,14,09,44,21.80
2010,08,14,09,45,21.90
2010,08,14,09,46,22.00
2010,08,14,09,47,22.10
2010,08,14,09,48,22.20
2010,08,14,09,49,22.30
2010,08,14,09,50,22.40
2010,08,14,09,51,22.40
2010,08,14,09,52,22.50
2010,08,14,09,53,22.60
2010,08,14,09,54,22.70
2010,08,14,09,55,22.80
2010,08,14,09,56,22.90
2010,08,14,09,57,23.00
2010,08,14,09,58,23.10
2010,08,14,09,59,23.20
2010,08,14,10,00,23.20
2010,08,14,10,01,23.20
2010,08,14,10,02,23.30
2010,08,14,10,03,23.30
2010,08,14,10,04,23.30
2010,08,14,10,05,23.30
2010,08,14,10,06,23.30
2010,08,14,10,07,23.30
2010,08,14,10,08,23.30
2010,08,14,10,09,23.30
2010,08,14,10,10,23.20
2010,08,14,10,11,23.20
2010,08,14,10,12,23.20
2010,08,14,10,13,23.20
2010,08,14,10,14,23.30
2010,08,14,10,15,23.30
2010,08,14,10,16,23.30
2010,08,14,10,17,23.30
2010,08,14,10,18,23.30
2010,08,14,10,19,23.30
2010,08,14,10,20,23.40
2010,08,14,10,21,23.40
2010,08,14,10,22,23.50
2010,08,14,10,23,23.50
2010,08,14,10,24,23.60
2010,08,14,10,25,23.60
2010,08,14,10,26,23.70
2010,08,14,10,27,23.70
2010,08,14,10,28,23.80
2010,08,14,10,29,23.90
2010,08,14,10,30,23.90
2010,08,14,10,31,23.90
2010,08,14,10,32,23.90
2010,08,14,10,33,23.90
2010,08,14,10,34,23.80
2010,08,14,10,35,23.70
2010,08,14,10,36,23.60
2010,08,14,10,37,23.40
2010,08,14,10,38,23.20
2010,08,14,10,39,23.10
2010,08,14,10,40,23.10
2010,08,14,10,41,23.00
2010,08,14,10,42,23.00
2010,08,14,10,43,23.00
2010,08,14,10,44,22.90
2010,08,14,10,45,23.00
2010,08,14,10,46,23.00
2010,08,14,10,47,23.10
2010,08,14,10,48,23.10
2010,08,14,10,49,23.20
2010,08,14,10,50,23.30
2010,08,14,10,51,23.30
2010,08,14,10,52,23.30
2010,08,14,10,53,23.30
2010,08,14,10,54,23.30
2010,08,14,10,55,23.30
2010,08,14,10,56,23.30
2010,08,14,10,57,23.40
2010,08,14,10,58,23.40
2010,08,14,10,59,23.40
2010,08,14,11,00,23.40
2010,08,14,11,01,23.50
2010,08,14,11,02,23.60
2010,08,14,11,03,23.60
2010,08,14,11,04,23.60
2010,08,14,11,05,23.60
2010,08,14,11,06,23.70
2010,08,14,11,07,23.80
2010,08,14,11,08,23.80
2010,08,14,11,09,23.80
2010,08,14,11,10,23.90
2010,08,14,11,11,23.90
2010,08,14,11,12,23.90
2010,08,14,11,13,24.00
2010,08,14,11,14,24.00
2010,08,14,11,15,24.00
2010,08,14,11,16,24.00
2010,08,14,11,17,24.00
2010,08,14,11,18,24.00
2010,08,14,11,19,24.00
2010,08,14,11,20,24.00
2010,08,14,11,21,23.90
2010,08,14,11,22,23.90
2010,08,14,11,23,23.90
2010,08,14,11,24,23.80
2010,08,14,11,25,23.80
2010,08,14,11,26,23.80
2010,08,14,11,27,23.70
2010,08,14,11,28,23.70
2010,08,14,11,29,23.60
2010,08,14,11,30,23.60
2010,08,14,11,31,23.60
2010,08,14,11,32,23.50
2010,08,14,11,33,23.50
2010,08,14,11,34,23.50
2010,08,14,11,35,23.50
2010,08,14,11,36,23.40
2010,08,14,11,37,23.30
2010,08,14,11,38,23.20
2010,08,14,11,39,23.10
2010,08,14,11,40,23.00
2010,08,14,11,41,22.90
2010,08,14,11,42,22.90
2010,08,14,11,43,22.90
2010,08,14,11,44,23.00
2010,08,14,11,45,23.00
2010,08,14,11,46,23.10
2010,08,14,11,47,23.10
2010,08,14,11,48,23.20
2010,08,14,11,49,23.30
2010,08,14,11,50,23.30
2010,08,14,11,51,23.30
2010,08,14,11,52,23.30
2010,08,14,11,53,23.20
2010,08,14,11,54,23.20
2010,08,14,11,55,23.20
2010,08,14,11,56,23.30
2010,08,14,11,57,23.40
2010,08,14,11,58,23.50
2010,08,14,11,59,23.60
2010,08,14,12,00,23.70
2010,08,14,12,01,23.80
2010,08,14,12,02,23.90
2010,08,14,12,03,24.00
2010,08,14,12,04,24.10
2010,08,14,12,05,24.20
2010,08,14,12,06,24.20
2010,08,14,12,07,24.30
2010,08,14,12,08,24.40
2010,08,14,12,09,24.50
2010,08,14,12,10,24.60
2010,08,14,12,11,24.70
2010,08,14,12,12,24.80
2010,08,14,12,13,24.90
2010,08,14,12,14,25.00
2010,08,14,12,15,25.10
2010,08,14,12,16,25.20
2010,08,14,12,17,25.30
2010,08,14,12,18,25.50
2010,08,14,12,19,25.70
2010,08,14,12,20,25.80
2010,08,14,12,21,25.90
2010,08,14,12,22,26.10
2010,08,14,12,23,26.30
2010,08,14,12,24,26.40
2010,08,14,12,25,26.60
2010,08,14,12,26,26.80
2010,08,14,12,27,26.80
2010,08,14,12,28,26.90
2010,08,14,12,29,27.00
2010,08,14,12,30,27.00
2010,08,14,12,31,27.10
2010,08,14,12,32,27.20
2010,08,14,12,33,27.30
2010,08,14,12,34,27.30
2010,08,14,12,35,27.40
2010,08,14,12,36,27.50
2010,08,14,12,37,27.60
2010,08,14,12,38,27.60
2010,08,14,12,39,27.70
2010,08,14,12,40,27.80
2010,08,14,12,41,27.90
2010,08,14,12,42,27.90
2010,08,14,12,43,27.80
2010,08,14,12,44,27.90
2010,08,14,12,45,27.90
2010,08,14,12,46,27.90
2010,08,14,12,47,27.90
2010,08,14,12,48,27.90
2010,08,14,12,49,28.00
2010,08,14,12,50,28.10
2010,08,14,12,51,28.20
2010,08,14,12,52,28.30
2010,08,14,12,53,28.40
2010,08,14,12,54,28.40
2010,08,14,12,55,28.50
2010,08,14,12,56,28.50
2010,08,14,12,57,28.60
2010,08,14,12,58,28.50
2010,08,14,12,59,28.50
2010,08,14,13,00,28.40
2010,08,14,13,01,28.30
2010,08,14,13,02,28.30
2010,08,14,13,03,28.20
2010,08,14,13,04,28.20
2010,08,14,13,05,28.10
2010,08,14,13,06,28.00
2010,08,14,13,07,27.90
2010,08,14,13,08,27.90
2010,08,14,13,09,27.90
2010,08,14,13,10,27.80
2010,08,14,13,11,27.80
2010,08,14,13,12,27.80
2010,08,14,13,13,27.80
2010,08,14,13,14,27.80
2010,08,14,13,15,27.70
2010,08,14,13,16,27.70
2010,08,14,13,17,27.50
2010,08,14,13,18,27.40
2010,08,14,13,19,27.30
2010,08,14,13,20,27.20
2010,08,14,13,21,27.10
2010,08,14,13,22,27.00
2010,08,14,13,23,26.90
2010,08,14,13,24,26.80
2010,08,14,13,25,26.80
2010,08,14,13,26,26.80
2010,08,14,13,27,26.90
2010,08,14,13,28,26.90
2010,08,14,13,29,27.00
2010,08,14,13,30,27.10
2010,08,14,13,31,27.20
2010,08,14,13,32,27.30
2010,08,14,13,33,27.50
2010,08,14,13,34,27.70
2010,08,14,13,35,27.90
2010,08,14,13,36,28.00
2010,08,14,13,37,28.20
2010,08,14,13,38,28.40
2010,08,14,13,39,28.40
2010,08,14,13,40,28.40
2010,08,14,13,41,28.40
2010,08,14,13,42,28.40
2010,08,14,13,43,28.20
2010,08,14,13,44,28.10
2010,08,14,13,45,28.00
2010,08,14,13,46,28.00
2010,08,14,13,47,27.90
2010,08,14,13,48,27.90
2010,08,14,13,49,27.90
2010,08,14,13,50,27.80
2010,08,14,13,51,27.90
2010,08,14,13,52,28.00
2010,08,14,13,53,28.10
2010,08,14,13,54,28.20
2010,08,14,13,55,28.30
2010,08,14,13,56,28.50
2010,08,14,13,57,28.70
2010,08,14,13,58,28.80
2010,08,14,13,59,29.00
2010,08,14,14,00,29.20
2010,08,14,14,01,29.40
2010,08,14,14,02,29.50
2010,08,14,14,03,29.70
2010,08,14,14,04,29.80
2010,08,14,14,05,29.90
2010,08,14,14,06,30.00
2010,08,14,14,07,30.20
2010,08,14,14,08,30.30
2010,08,14,14,09,30.40
2010,08,14,14,10,30.50
2010,08,14,14,11,30.60
2010,08,14,14,12,30.70
2010,08,14,14,13,30.70
2010,08,14,14,14,30.80
2010,08,14,14,15,30.90
2010,08,14,14,16,30.90
2010,08,14,14,17,31.00
2010,08,14,14,18,31.00
2010,08,14,14,19,31.10
2010,08,14,14,20,31.20
2010,08,14,14,21,31.20
2010,08,14,14,22,31.30
2010,08,14,14,23,31.40
2010,08,14,14,24,31.50
2010,08,14,14,25,31.50
2010,08,14,14,26,31.60
2010,08,14,14,27,31.70
2010,08,14,14,28,31.70
2010,08,14,14,29,31.70
2010,08,14,14,30,31.70
2010,08,14,14,31,31.70
2010,08,14,14,32,31.70
2010,08,14,14,33,31.70
2010,08,14,14,34,31.70
2010,08,14,14,35,31.80
2010,08,14,14,36,31.80
2010,08,14,14,37,31.90
2010,08,14,14,38,32.00
2010,08,14,14,39,32.10
2010,08,14,14,40,32.20
2010,08,14,14,41,32.30
2010,08,14,14,42,32.40
2010,08,14,14,43,32.50
2010,08,14,14,44,32.50
2010,08,14,14,45,32.60
2010,08,14,14,46,32.70
2010,08,14,14,47,32.80
2010,08,14,14,48,32.80
2010,08,14,14,49,32.90
2010,08,14,14,50,33.00
2010,08,14,14,51,33.10
2010,08,14,14,52,33.10
2010,08,14,14,53,33.20
2010,08,14,14,54,33.20
2010,08,14,14,55,33.20
2010,08,14,14,56,33.20
2010,08,14,14,57,33.20
2010,08,14,14,58,33.20
2010,08,14,14,59,33.20
2010,08,14,15,00,33.20
2010,08,14,15,01,33.20
2010,08,14,15,02,33.20
2010,08,14,15,03,33.20
2010,08,14,15,04,33.20
2010,08,14,15,05,33.20
2010,08,14,15,06,33.20
2010,08,14,15,07,33.20
2010,08,14,15,08,33.20
2010,08,14,15,09,33.20
2010,08,14,15,10,33.20
2010,08,14,15,11,33.20
2010,08,14,15,12,33.20
2010,08,14,15,13,33.20
2010,08,14,15,14,33.20
2010,08,14,15,15,33.20
2010,08,14,15,16,33.20
2010,08,14,15,17,33.20
2010,08,14,15,18,33.30
2010,08,14,15,19,33.30
2010,08,14,15,20,33.40
2010,08,14,15,21,33.50
2010,08,14,15,22,33.50
2010,08,14,15,23,33.60
2010,08,14,15,24,33.60
2010,08,14,15,25,33.70
2010,08,14,15,26,33.70
2010,08,14,15,27,33.70
2010,08,14,15,28,33.70
2010,08,14,15,29,33.80
2010,08,14,15,30,33.80
2010,08,14,15,31,33.80
2010,08,14,15,32,33.90
2010,08,14,15,33,34.00
2010,08,14,15,34,34.10
2010,08,14,15,35,34.10
2010,08,14,15,36,34.10
2010,08,14,15,37,34.20
2010,08,14,15,38,34.20
2010,08,14,15,39,34.10
2010,08,14,15,40,34.10
2010,08,14,15,41,34.00
2010,08,14,15,42,34.00
2010,08,14,15,43,33.90
2010,08,14,15,44,33.90
2010,08,14,15,45,34.00
2010,08,14,15,46,34.00
2010,08,14,15,47,34.10
2010,08,14,15,48,34.10
2010,08,14,15,49,34.10
2010,08,14,15,50,34.10
2010,08,14,15,51,34.20
2010,08,14,15,52,34.20
2010,08,14,15,53,34.20
2010,08,14,15,54,34.20
2010,08,14,15,55,34.20
2010,08,14,15,56,34.20
2010,08,14,15,57,34.30
2010,08,14,15,58,34.30
2010,08,14,15,59,34.40
2010,08,14,16,00,34.40
2010,08,14,16,01,34.40
2010,08,14,16,02,34.30
2010,08,14,16,03,34.30
2010,08,14,16,04,34.30
2010,08,14,16,05,34.20
2010,08,14,16,06,34.20
2010,08,14,16,07,34.20
2010,08,14,16,08,34.20
2010,08,14,16,09,34.10
2010,08,14,16,10,34.10
2010,08,14,16,11,34.10
2010,08,14,16,12,34.10
2010,08,14,16,13,34.10
2010,08,14,16,14,34.10
2010,08,14,16,15,34.20
2010,08,14,16,16,34.20
2010,08,14,16,17,34.20
2010,08,14,16,18,34.20
2010,08,14,16,19,34.20
2010,08,14,16,20,34.20
2010,08,14,16,21,34.10
2010,08,14,16,22,34.00
2010,08,14,16,23,33.90
2010,08,14,16,24,33.90
2010,08,14,16,25,33.80
2010,08,14,16,26,33.80
2010,08,14,16,27,33.80
2010,08,14,16,28,33.90
2010,08,14,16,29,33.90
2010,08,14,16,30,34.00
2010,08,14,16,31,34.00
2010,08,14,16,32,34.10
2010,08,14,16,33,34.20
2010,08,14,16,34,34.20
2010,08,14,16,35,34.30
2010,08,14,16,36,34.30
2010,08,14,16,37,34.40
2010,08,14,16,38,34.40
2010,08,14,16,39,34.30
2010,08,14,16,40,34.30
2010,08,14,16,41,34.20
2010,08,14,16,42,34.20
2010,08,14,16,43,34.20
2010,08,14,16,44,34.20
2010,08,14,16,45,34.10
2010,08,14,16,46,34.00
2010,08,14,16,47,33.90
2010,08,14,16,48,34.00
2010,08,14,16,49,34.10
2010,08,14,16,50,34.00
2010,08,14,16,51,33.80
2010,08,14,16,52,33.60
2010,08,14,16,53,33.50
2010,08,14,16,54,33.40
2010,08,14,16,55,33.40
2010,08,14,16,56,33.40
2010,08,14,16,57,33.30
2010,08,14,16,58,33.30
2010,08,14,16,59,33.30
2010,08,14,17,00,33.40
2010,08,14,17,01,33.40
2010,08,14,17,02,33.40
2010,08,14,17,03,33.30
2010,08,14,17,04,33.30
2010,08,14,17,05,33.20
2010,08,14,17,06,33.20
2010,08,14,17,07,33.30
2010,08,14,17,08,33.30
2010,08,14,17,09,33.30
2010,08,14,17,10,33.40
2010,08,14,17,11,33.40
2010,08,14,17,12,33.40
2010,08,14,17,13,33.40
2010,08,14,17,14,33.40
2010,08,14,17,15,33.50
2010,08,14,17,16,33.60
2010,08,14,17,17,33.50
2010,08,14,17,18,33.50
2010,08,14,17,19,33.50
2010,08,14,17,20,33.40
2010,08,14,17,21,33.40
2010,08,14,17,22,33.30
2010,08,14,17,23,33.30